Find Starlink 34575

NORAD ID: 64859 Int'l Des: 2025-152 Owner: SPXS Country: US Constellation: starlink operational
LEOCIRCULARRETROGRADESSO

Live-Position

3D-Globus wird geladen...

Über Starlink 34575

Beschreibung wird geladen...

Nächste Überflüge

Passes for default location (London). Set your location on the main map for personalized predictions.

Höhenverlauf

Loading altitude history...

Zweizeiliger Elementsatz

1 64859U 25152T 26107.30769197 .00004705 00000-0 33008-3 0 9998
2 64859 97.6024 323.6510 0002404 74.6876 285.4616 15.05646699 41233
Epoch: 17. Apr. 2026 • Age: 12 hours

Aktueller Status

Höhe 575.4 km
Geschwindigkeit 7.57 km/s
Subsatellitenpunkt -63.34°S, 11.58°W
Startdatum 19. Juli 2025
Alter 0.7 years
Typ internet

Technische Details

Klassifizierung Payload
Masse 575.00 kg
Trockenmasse 530.00 kg
Gesamtmasse 575.00 kg
Länge 0.30 m
Durchmesser 4.10 m
Spannweite 29.00 m
Form Box + pan
Hersteller SPXS
Bus-Typ Starlink V2MO
Phasenstatus In Orbit
Besitzer/Staat SPXS/US

Most Searched